Content
SEND FEEDBACK

Daily
Averages
Monthly
Summary
Philippines

QUEZON CITY, PHILIPPINES


Home > Asia > Philippines
Elevation: 46 meters     Latitude: 14 39N     Longitude: 121 03E

WEATHER
 
SELECT A DAY
Number of Records: 172,573;   Date Range: 7/1/96 - 8/12/14
 
SHARE

PRINT THIS DATA

[ ← Previous Day ]
WEATHER ALMANAC - 14 MAY, 2013
[ Next Day → ]
[ °F ]   °C
Weather ElementAverageHighLow
Temperature28.8 °C33 °C (11:00 am)26 °C (10:00 pm)
Dewpoint25.4 °C26.7 °C (2:00 pm)23 °C (10:00 am)
Humidity81.2 %98 % (8:00 pm)54 % (11:00 am)
Barometer1007.8 hPa1010.2 hPa (10:00 pm)1006.1 hPa (1:40 pm)
Wind Speed7.6 km/h18.5 km/h (4:00 pm)
Weather ElementAverage
Visibility9.5 km
Wind DirectionSE (132.4 °)

Weather ElementTotal
Precipitation---
Cooling Degree Days11.2 (Base 18.3)
Growing Degree Days19.5 (Base 10)
Averaged from 33 records on 14 May, 2013
WEATHER CONDITIONS BREAKOUT
WIND DIRECTION BREAKOUT
WEATHER BY HOUR - 14 MAY, 2013
[ °F ]   °C
Local TimeTemperatureDewpointHumidityBarometerVisibilityWind DirectionWind SpeedGust SpeedPrecipitationEventsConditions
1:00 AM27 °C25 °C89 %1008.1 hPa10 kmVariable3.7 km/hMostly Cloudy
2:00 AM27.2 °C24.4 °C82 %1008.5 hPa9.7 kmSE (130°)3.5 km/hHaze
2:00 AM27 °C25 °C89 %1008.1 hPa10 kmVariable3.7 km/hScattered Clouds
3:00 AM27 °C26 °C94 %1007.1 hPa10 kmESE (120°)5.6 km/hScattered Clouds
5:00 AM26.7 °C25.6 °C92 %1007.8 hPa9.7 kmSouth (180°)3.5 km/hHaze
5:00 AM27 °C26 °C94 %1008.1 hPa9 kmSouth (180°)5.6 km/hScattered Clouds
6:00 AM27 °C26 °C94 %1008.1 hPa9 kmSSE (150°)5.6 km/hScattered Clouds
7:00 AM28 °C26 °C89 %1009.1 hPa10 kmSE (130°)5.6 km/hScattered Clouds
8:00 AM30 °C25 °C74 %1009.1 hPa10 kmESE (120°)7.4 km/hScattered Clouds
8:00 AM29.4 °C25 °C71 %1009.5 hPa9.7 kmESE (120°)7.2 km/hHaze
9:00 AM31 °C25 °C70 %1009.1 hPa10 kmESE (120°)13 km/hScattered Clouds
10:00 AM32 °C23 °C59 %1009.1 hPa10 kmESE (120°)11.1 km/hScattered Clouds
11:00 AM32.2 °C24.4 °C54 %1008.8 hPa9.7 kmSE (130°)7.2 km/hHaze
11:00 AM33 °C24 °C59 %1008.1 hPa10 kmSE (130°)9.3 km/hScattered Clouds
12:00 PM33 °C25 °C63 %1008.1 hPa10 kmEast (80°)11.1 km/hScattered Clouds
12:40 PM32 °C25 °C66 %1007.1 hPa9 kmSSE (150°)9.3 km/hThunderstormThunderstorm
1:00 PM30 °C25 °C74 %1007.1 hPa10 kmWSW (250°)16.7 km/hMostly Cloudy
1:40 PM29 °C26 °C84 %1006.1 hPa9 kmSW (230°)11.1 km/hRainLight Rain Showers
2:00 PM29.4 °C26.7 °C79 %1006.4 hPa9.7 kmSW (230°)7.2 km/hRainLight Rain
2:00 PM30 °C26 °C79 %1006.1 hPa10 kmSW (230°)9.3 km/hRainLight Rain
3:00 PM30 °C26 °C79 %1006.1 hPa10 kmSW (230°)9.3 km/hRainLight Rain
4:00 PM31 °C25 °C70 %1006.1 hPa10 kmSE (130°)18.5 km/hMostly Cloudy
5:00 PM28.9 °C25.6 °C76 %1006.8 hPa9.7 kmEast (80°)10.8 km/hHaze
5:00 PM29 °C25 °C79 %1006.1 hPa9 kmEast (80°)11.1 km/hMostly Cloudy
6:00 PM29 °C24 °C74 %1007.1 hPa9 kmSSE (160°)5.6 km/hMostly Cloudy
6:47 PM28 °C26 °C89 %1007.1 hPa9 kmSSW (210°)3.7 km/hRainLight Rain
7:00 PM28 °C26 °C89 %1008.1 hPa9 kmSE (140°)7.4 km/hRainLight Rain
8:00 PM26.7 °C26.7 °C98 %1008.5 hPa9.7 kmSW (230°)7.2 km/hRainRain
8:00 PM27 °C26 °C94 %1008.1 hPa9 kmSW (230°)5.6 km/hRainRain
9:00 PM27 °C26 °C94 %1009.1 hPaCalmRainLight Rain
10:00 PM26 °C25 °C94 %1010.2 hPa9 kmENE (60°)7.4 km/hRainLight Rain
11:00 PM26.7 °C26.1 °C95 %1009.5 hPa9.7 kmNNE (20°)3.5 km/hRainLight Rain
11:00 PM27 °C26 °C94 %1009.1 hPa9 kmVariable3.7 km/hRainLight Rain
Hourly data recorded from RPLL, located 0 kilometers away from Quezon City, Philippines







STORIES FROM OUR PARTNERS